Location: Izdebno
(52.6670°N, 16.2170°E)
Time: 06:11:38
(UTC+02:00)

Vanguard 2 Rocket - Pass Details

Date: 24 February 2024
Orbit: 555 x 3307 km, 32.9° (Epoch: 24 April)

Event Time Altitude Azimuth Distance (km) Brightness Sun altitude
Rises 17:48:13 0° 255° (WSW) 5,408 13.6 -4.5°
Reaches altitude 10° 17:51:47 10° 246° (WSW) 4,763 12.2 -5.0°
Maximum altitude 18:04:01 34° 189° (S) 4,065 10.4 -6.9°
Drops below altitude 10° 18:20:10 10° 135° (SE) 6,255 10.8 -9.3°
Sets 18:25:48 0° 127° (SE) 7,268 11.0 -10.1°
